EW0924 Weather Reports


time (UTC)temp
C
wind
direction
speed
KPH
gust
KPH
rain 1hr
cm
rain 24hr
cm
rain mn
cm
humidity
%
barometer
mb
20260507223604 13 273 4.8 17.7 0.00 0.36 0.20 48 1005.1
20260507222704 13 283 4.8 12.9 0.00 0.36 0.20 48 1005.1
20260507221804 13 269 6.4 16.1 0.00 0.36 0.20 49 1005.1
20260507220904 13 247 4.8 14.5 0.00 0.36 0.20 47 1005.1
20260507220005 13 289 4.8 14.5 0.00 0.38 0.20 47 1005.1
20260507215404 14 271 4.8 11.3 0.00 0.38 0.20 48 1005.1
20260507214505 13 254 4.8 9.7 0.00 0.38 0.20 48 1005.1
20260507213604 13 272 4.8 12.9 0.00 0.43 0.20 48 1005.1
20260507212704 13 256 4.8 11.3 0.00 0.46 0.20 48 1005.1
20260507211804 14 303 4.8 12.9 0.00 0.51 0.20 47 1005.1
20260507210925 14 281 4.8 12.9 0.00 0.61 0.20 48 1005.1
20260507210005 14 241 4.8 12.9 0.00 0.61 0.20 47 1005.1
20260507205405 14 253 4.8 11.3 0.00 0.79 0.20 48 1005.1
20260507204504 15 252 3.2 11.3 0.00 0.86 0.20 48 1005.1
20260507203604 14 254 4.8 12.9 0.00 0.91 0.20 48 1005.1
20260507202704 14 244 4.8 11.3 0.00 0.97 0.20 49 1005.1
20260507201804 15 239 8.0 17.7 0.00 1.02 0.20 48 1005.1
20260507200925 15 241 8.0 14.5 0.00 1.02 0.20 47 1005.1
20260507200004 15 262 8.0 17.7 0.00 1.09 0.20 47 1005.1
20260507195404 15 274 6.4 12.9 0.00 1.17 0.20 47 1005.1
20260507194504 16 248 6.4 16.1 0.00 1.17 0.20 48 1005.1
20260507193604 16 262 6.4 14.5 0.00 1.17 0.20 47 1005.1
20260507192725 15 281 6.4 16.1 0.00 1.22 0.20 49 1005.1
20260507191805 15 298 8.0 16.1 0.00 1.27 0.20 50 1005.1
20260507190905 15 285 8.0 14.5 0.00 1.32 0.20 50 1005.1
20260507190025 15 233 8.0 14.5 0.00 1.32 0.20 50 1005.1
20260507185426 15 248 8.0 14.5 0.00 1.37 0.20 50 1005.1
20260507184526 15 250 8.0 14.5 0.00 1.50 0.20 53 1005.1
20260507183625 14 247 4.8 11.3 0.00 1.65 0.20 56 1005.1
20260507182704 14 252 6.4 14.5 0.00 1.68 0.20 58 1005.1
20260507181805 13 253 4.8 12.9 0.00 1.73 0.20 62 1005.1
20260507180904 13 249 6.4 16.1 0.00 1.73 0.20 62 1005.1
20260507180004 15 264 4.8 12.9 0.00 1.78 0.20 61 1005.1
20260507175404 14 287 4.8 11.3 0.00 1.78 0.20 63 1005.1
20260507174505 13 268 3.2 9.7 0.00 1.78 0.20 64 1005.1
20260507173604 14 225 6.4 12.9 0.00 1.78 0.20 63 1005.1
20260507172704 14 229 4.8 12.9 0.00 1.78 0.20 61 1005.1
20260507171804 13 248 3.2 12.9 0.00 1.78 0.20 63 1005.1
20260507170904 14 225 3.2 9.7 0.00 1.78 0.20 61 1005.1
20260507170025 14 233 4.8 14.5 0.00 1.78 0.20 62 1005.1
20260507165404 14 247 4.8 11.3 0.00 1.78 0.20 60 1005.1
20260507164505 15 267 4.8 12.9 0.00 1.78 0.20 62 1005.1
20260507163604 15 223 6.4 17.7 0.00 1.78 0.20 60 1005.1
20260507162704 14 228 4.8 16.1 0.00 1.78 0.20 60 1005.1
20260507161804 14 228 4.8 12.9 0.00 1.78 0.20 62 1005.1
20260507160925 15 240 4.8 11.3 0.00 1.78 0.20 60 1005.1
20260507160004 15 238 4.8 11.3 0.00 1.78 0.20 58 1005.1
20260507155404 15 247 4.8 11.3 0.00 1.78 0.20 58 1005.1
20260507154525 14 229 6.4 14.5 0.00 1.78 0.20 59 1005.1
20260507153604 15 213 6.4 11.3 0.00 1.78 0.20 59 1005.1
20260507152704 15 223 6.4 12.9 0.00 1.78 0.20 60 1005.1
20260507151826 15 246 6.4 12.9 0.00 1.78 0.20 59 1005.1
20260507150904 14 219 6.4 14.5 0.00 1.78 0.20 61 1005.1
20260507150004 13 231 3.2 12.9 0.00 1.78 0.20 66 1005.1
20260507145405 13 282 3.2 11.3 0.00 1.78 0.20 66 1005.1
20260507144504 13 316 4.8 11.3 0.00 1.78 0.20 66 1005.1
20260507143604 13 314 4.8 19.3 0.00 1.78 0.20 68 1005.1
20260507142704 13 293 4.8 11.3 0.00 1.78 0.20 69 1005.1
20260507141804 13 258 4.8 11.3 0.00 1.78 0.20 68 1005.1
20260507140904 12 312 4.8 11.3 0.00 1.78 0.20 69 1005.1
20260507140004 12 248 4.8 9.7 0.00 1.78 0.20 71 1005.1
20260507135404 12 236 6.4 11.3 0.00 1.78 0.20 71 1005.1
20260507134504 12 272 4.8 9.7 0.00 1.78 0.20 72 1005.1
20260507133604 12 292 4.8 11.3 0.00 1.78 0.20 72 1005.1
20260507132704 11 294 4.8 9.7 0.00 1.78 0.20 73 1005.1
20260507131826 11 277 4.8 12.9 0.00 1.78 0.20 72 1005.1
20260507130903 11 292 4.8 12.9 0.00 1.78 0.20 74 1005.1
20260507130025 11 302 4.8 11.3 0.00 1.78 0.20 75 1005.1
20260507125404 11 299 4.8 11.3 0.00 1.78 0.20 76 1005.1
20260507124504 11 267 3.2 8.0 0.00 1.78 0.20 77 1005.1
20260507123626 10 269 4.8 12.9 0.00 1.78 0.20 79 1005.1
20260507122705 10 279 4.8 8.0 0.00 1.78 0.20 80 1005.1
20260507121804 10 285 3.2 6.4 0.00 1.78 0.20 78 1005.1
20260507120904 10 281 4.8 8.0 0.00 1.78 0.20 80 1005.1
20260507120005 10 251 3.2 8.0 0.00 1.78 0.20 81 1005.1
20260507115404 10 264 3.2 6.4 0.00 1.78 0.20 82 1005.1
20260507114525 9 287 3.2 8.0 0.00 1.78 0.20 82 1005.1
20260507113625 9 285 3.2 8.0 0.00 1.78 0.20 84 1005.1
20260507112703 8 284 3.2 6.4 0.00 1.78 0.20 86 1005.1
20260507111804 8 243 1.6 6.4 0.00 1.78 0.20 86 1005.1
20260507110905 8 277 1.6 4.8 0.00 1.78 0.20 90 1005.1
20260507110004 7 251 0.0 4.8 0.00 1.78 0.20 93 1005.1
20260507105403 7 243 1.6 4.8 0.00 1.78 0.20 94 1005.1
20260507104525 7 229 1.6 3.2 0.00 1.78 0.20 93 1005.1
20260507103604 7 262 0.0 3.2 0.00 1.78 0.20 95 1005.1
20260507102704 6 200 0.0 3.2 0.00 1.78 0.20 96 1005.1
20260507101804 6 195 1.6 3.2 0.00 1.78 0.20 96 1005.1
20260507100903 6 199 1.6 4.8 0.00 1.78 0.20 98 1005.1
20260507100025 6 233 1.6 4.8 0.00 1.78 0.20 98 1005.1
20260507095404 6 229 1.6 3.2 0.00 1.78 0.20 97 1005.1
20260507094504 6 236 1.6 4.8 0.00 1.78 0.20 96 1005.1
20260507093604 6 284 1.6 4.8 0.00 1.78 0.20 94 1005.1
20260507092725 6 270 3.2 6.4 0.00 1.78 0.20 94 1005.1
20260507091804 6 259 3.2 8.0 0.00 1.78 0.20 97 1005.1
20260507090904 6 216 1.6 6.4 0.00 1.78 0.20 99 1005.1
20260507090006 6 228 1.6 4.8 0.00 1.78 0.20 99 1005.1
20260507085404 6 238 3.2 6.4 0.00 1.78 0.20 99 1005.1
20260507084525 6 245 1.6 6.4 0.00 1.78 0.20 98 1005.1
20260507083605 6 267 1.6 6.4 0.00 1.78 0.20 97 1005.1
20260507082704 6 285 3.2 8.0 0.00 1.78 0.20 96 1005.1
20260507081804 7 304 3.2 9.7 0.00 1.78 0.20 96 1005.1
20260507080904 7 288 3.2 9.7 0.00 1.78 0.20 96 1005.1
20260507080004 7 300 3.2 9.7 0.00 1.78 0.20 96 1005.1
20260507075404 7 299 3.2 8.0 0.00 1.78 0.20 96 1005.1
20260507074504 7 279 4.8 11.3 0.00 1.78 0.20 96 1005.1
20260507073625 7 279 4.8 9.7 0.00 1.78 0.20 96 1005.1
20260507072703 7 295 4.8 17.7 0.00 1.78 0.20 96 1005.1
20260507071804 7 287 4.8 11.3 0.00 1.78 0.20 96 1005.1
20260507070904 7 293 6.4 14.5 0.00 1.78 0.20 96 1005.1
20260507070008 7 290 4.8 12.9 0.00 1.78 0.20 97 1005.1
20260507065404 7 289 4.8 9.7 0.00 1.78 0.20 98 1005.1
20260507064505 7 284 4.8 8.0 0.00 1.78 0.20 99 1005.1
20260507063604 7 305 4.8 9.7 0.00 1.78 0.20 99 1005.1
20260507062704 8 307 3.2 9.7 0.00 1.78 0.20 99 1005.1
20260507061804 8 315 3.2 9.7 0.00 1.78 0.20 99 1005.1
20260507060904 8 305 3.2 8.0 0.00 1.78 0.20 99 1005.1
20260507060004 8 311 3.2 6.4 0.00 1.78 0.20 99 1005.1
20260507055404 8 286 3.2 8.0 0.00 1.78 0.20 99 1005.1
20260507054505 8 288 3.2 8.0 0.05 1.78 0.20 99 1005.1
20260507053603 8 311 3.2 8.0 0.05 1.78 0.20 99 1005.1
20260507052705 8 326 4.8 9.7 0.05 1.78 0.20 99 1005.1
20260507051804 8 319 3.2 9.7 0.05 1.78 0.20 99 1005.1
20260507050903 8 319 3.2 11.3 0.20 1.78 0.20 99 1005.1
20260507050004 8 312 4.8 14.5 0.20 1.78 0.20 99 1005.1
20260507045404 8 311 3.2 14.5 0.20 1.78 0.20 99 1005.1
20260507044525 8 307 4.8 9.7 0.18 1.73 0.18 99 1005.1
20260507043605 9 311 4.8 14.5 0.15 1.73 0.15 99 1005.1
20260507042704 9 307 4.8 11.3 0.15 1.73 0.15 99 1005.1
20260507041825 10 312 4.8 12.9 0.18 1.73 0.15 99 1005.1
20260507040904 10 295 4.8 9.7 0.10 1.57 0.00 99 1005.1
20260507040004 10 302 4.8 9.7 0.10 1.57 0.00 99 1005.1
20260507035403 10 316 4.8 12.9 0.10 1.57 1.57 99 1005.1
20260507034504 11 327 4.8 12.9 0.10 1.57 1.57 99 1005.1
20260507033626 11 312 3.2 8.0 0.10 1.57 1.57 99 1005.1
20260507032705 11 308 4.8 12.9 0.10 1.57 1.55 99 1005.1
20260507031803 11 293 4.8 9.7 0.10 1.55 1.55 99 1005.1
20260507030903 12 312 4.8 9.7 0.05 1.47 1.50 99 1005.1
20260507030004 12 280 1.6 11.3 0.05 1.47 1.47 99 1005.1
20260507025425 12 265 1.6 6.4 0.03 1.47 1.47 99 1005.1
20260507024525 12 201 1.6 3.2 0.00 1.45 1.45 99 1005.1
20260507023625 12 273 1.6 4.8 0.00 1.45 1.45 99 1005.1
20260507022705 12 203 3.2 8.0 0.00 1.45 1.45 99 1005.1
20260507021805 12 165 4.8 9.7 0.00 1.45 1.45 99 1005.1
20260507020925 12 154 3.2 9.7 0.00 1.45 1.45 99 1005.1
20260507020004 12 307 1.6 4.8 0.00 1.45 1.45 99 1005.1
20260507015403 12 203 4.8 14.5 0.00 1.45 1.45 99 1005.1
20260507014504 12 169 11.3 19.3 0.00 1.45 1.45 99 1005.1
20260507013624 12 177 8.0 19.3 0.00 1.45 1.45 99 1005.1
20260507012704 12 166 9.7 19.3 0.00 1.45 1.45 99 1005.1
20260507011804 12 168 14.5 20.9 0.00 1.45 1.45 99 1005.1
20260507010903 12 164 12.9 25.7 0.00 1.45 1.45 99 1005.1
20260507010005 12 170 9.7 25.7 0.00 1.57 1.45 99 1005.1
20260507005404 12 167 11.3 22.5 0.00 1.57 1.45 99 1005.1
20260507004504 12 159 12.9 22.5 0.00 1.57 1.45 99 1005.1
20260507003604 12 165 12.9 29.0 0.00 1.57 1.45 99 1005.1
20260507002724 12 166 16.1 29.0 0.00 1.57 1.45 99 1005.1
20260507001803 12 165 12.9 25.7 0.00 1.57 1.45 99 1005.1
20260507000904 12 162 12.9 24.1 0.00 1.57 1.45 99 1005.1
20260507000004 12 157 12.9 20.9 0.00 1.57 1.45 99 1005.1
20260506235424 12 158 12.9 22.5 0.00 1.57 1.45 99 1005.1
20260506234504 12 164 11.3 22.5 0.00 1.57 1.45 99 1005.1
20260506233605 12 164 12.9 22.5 0.00 1.57 1.45 99 1005.1
20260506232703 12 153 11.3 25.7 0.00 1.68 1.45 99 1005.1
20260506231803 12 150 11.3 17.7 0.00 1.68 1.45 99 1005.1
20260506230924 12 158 11.3 19.3 0.03 1.68 1.45 99 1005.1
20260506230025 12 158 9.7 19.3 0.05 1.68 1.45 99 1005.1
20260506225405 12 162 9.7 17.7 0.05 1.73 1.45 99 1005.1
20260506224503 12 151 8.0 17.7 0.05 1.91 1.45 99 1005.1